Location: Allos
(44.2333°N, 6.6333°E)
Time: 02:52:03
(UTC+00:00)

X-37B - Pass Details

Date: 13 March 2021
Orbit: 380 x 394 km, 45.0° (Epoch: 07 April)

Event Time Altitude Azimuth Distance (km) Brightness Sun altitude
Rises 18:54:02 0° 241° (WSW) 2,264 5.3 -14.5°
Reaches altitude 10° 18:56:07 10° 236° (SW) 1,414 4.1 -14.9°
Maximum altitude 18:59:14 51° 159° (SSE) 495 0.8 -15.4°
Enters shadow 19:00:00 40° 112° (ESE) 594 1.0 -15.6°
